Regional Weather Roundup
Issued by NWS

Home | Current Version | Previous Version | Text Only | Print | Product List | Glossary On
Versions: 1 2 3 4 5 6 7 8 9 10 11 12 13 14 15 16 17 18 19 20 21 22 23 24 25 26 27 28 29 30 31 32 33 34 35 36 37 38 39 40 41 42 43 44 45 46 47 48 49 50
000
ASUS43 KBIS 221510
RWRND

NORTH DAKOTA REGIONAL WEATHER ROUNDUP
NATIONAL WEATHER SERVICE BISMARCK ND
1000 AM CDT MON SEP 22 2014

NOTE: "FAIR" INDICATES FEW OR NO CLOUDS BELOW 12,000 FEET WITH NO
SIGNIFICANT WEATHER AND/OR OBSTRUCTIONS TO VISIBILITY.


NDZ001>003-009>011-017-221600-
NORTHWEST NORTH DAKOTA

CITY           SKY/WX    TMP DP  RH WIND       PRES   REMARKS
WILLISTON      SUNNY     58  40  51 CALM      30.03F
MINOT          SUNNY     62  44  51 S6        30.07F
MINOT AFB      SUNNY     61  45  55 S10       30.06F
$$

NDZ018>021-031>035-040>046-221600-
SOUTHWEST NORTH DAKOTA

CITY           SKY/WX    TMP DP  RH WIND       PRES   REMARKS
BISMARCK       SUNNY     59  48  67 SE10      30.12F
DICKINSON      SUNNY     57  43  59 S15       30.04S
GARRISON         N/A     57  47  69 SE6       30.09F
HETTINGER ARPT SUNNY     58  41  53 SE10      30.07F
$$

NDZ004>008-012>016-024-026-027-054-221600-
NORTHEAST NORTH DAKOTA

CITY           SKY/WX    TMP DP  RH WIND       PRES   REMARKS
GRAND FORKS    SUNNY     61  52  72 SW7       30.13S
GRND FRKS AFB  SUNNY     65  51  59 W8        30.14R
DEVILS LAKE    SUNNY     61  45  55 SW10      30.11S
$$

NDZ022-023-025-028>030-036>039-047>053-221600-
SOUTHEAST NORTH DAKOTA

CITY           SKY/WX    TMP DP  RH WIND       PRES   REMARKS
FARGO          SUNNY     58  48  69 S9        30.18S
JAMESTOWN      SUNNY     58  50  75 S8        30.15F
$$



USA.gov is the U.S. government's official web portal to all federal, state and local government web resources and services.